Location: Saint Louis
(38.6272°N, 90.1978°W)
Time: 04:12:55
(UTC-05:00)

ISS - Pass Details

Date: 24 May 2013
Orbit: 402 x 403 km, 51.6° (Epoch: 28 June)

Event Time Altitude Azimuth Distance (km) Brightness Sun altitude
Exits shadow 01:37:46 11° 53° (NE) 1,501 0.1 -29.8°
Drops below altitude 10° 01:37:52 10° 53° (NE) 1,541 0.1 -29.8°
Enters shadow 02:37:16 -62° 238° (WSW) 11,768 4.1 -26.1°
